20050502,000029,1501062,32.707181,-117.236745,0.0,21.450,3.020,5.194,1951.34,0.0,5.352,17.593,17.552, NaN,0.187,   NaN,17.47,1015.97,76.83,17.68,102.2,107.5,1.7,1.6,285.4,290.6,1.7,1.6,NaN, NaN,18.8,271.7,203.5,1114992029,1114992028,1,0.0,000028,000028,183.2,32.707313,-117.236702,0.00,NaN,NaN,21.455, NaN,NaN,NaN, NaN, NaN
20050502,000058,1501091,32.707176,-117.236745,0.0,21.450,3.020,5.194,1959.89,0.0,5.163,17.596,17.557, NaN,0.187,   NaN,17.56,1015.96,76.75,17.77,96.0,96.6,1.9,1.8,279.0,279.6,1.9,1.8,NaN, NaN,17.9,271.7,203.5,1114992059,1114992059,1,0.0,000058,000059,183.0,32.707321,-117.236702,0.04,NaN,NaN,21.455, NaN,NaN,NaN, NaN, NaN
20050502,000128,1501121,32.707181,-117.236745,0.0,21.450,3.020,5.194,1964.15,0.0,5.446,17.603,17.564, NaN,0.187,   NaN,17.64,1015.97,76.62,17.82,121.3,118.2,2.3,2.5,304.4,301.3,2.3,2.5,NaN, NaN,18.0,271.7,203.5,1114992089,1114992089,1,0.0,000088,000089,182.5,32.707313,-117.236698,-0.04,NaN,NaN,21.455, NaN,NaN,NaN, NaN, NaN
20050502,000159,1501152,32.707178,-117.236747,0.0,21.450,3.020,5.194,1967.77,0.0,5.503,17.608,17.570, NaN,0.187,   NaN,17.60,1015.97,76.03,17.80,104.1,113.1,2.3,2.6,287.2,296.1,2.3,2.6,NaN, NaN,17.8,271.7,203.5,1114992119,1114992119,1,0.0,000118,000119,183.2,32.707333,-117.236695,0.02,NaN,NaN,21.455, NaN,NaN,NaN, NaN, NaN
20050502,000229,1501182,32.707188,-117.236747,0.0,21.450,3.020,5.194,1973.72,0.0,5.069,17.612,17.575, NaN,0.187,   NaN,17.59,1016.00,76.11,17.77,96.3,107.9,1.9,1.9,285.9,290.8,1.9,1.9,NaN, NaN,18.4,271.7,203.5,1114992149,1114992149,1,0.0,000148,000149,183.0,32.707325,-117.236697,0.04,NaN,NaN,21.455, NaN,NaN,NaN, NaN, NaN
20050502,000258,1501211,32.707183,-117.236745,0.0,21.450,3.020,5.194,1963.81,0.0,4.804,17.613,17.576, NaN,0.187,   NaN,17.69,1016.01,76.05,17.80,125.4,127.9,1.5,1.8,316.7,311.1,1.5,1.8,NaN, NaN,17.7,271.7,350.6,1114992179,1114992178,1,0.0,000178,000178,183.0,32.707335,-117.236703,-0.08,NaN,NaN,21.455, NaN,NaN,NaN, NaN, NaN
20050502,000328,1501241,32.707193,-117.236748,0.0,21.450,3.020,5.194,1956.93,0.0,5.201,17.613,17.577, NaN,0.187,   NaN,17.66,1015.98,75.68,17.83,106.9,99.5,1.9,1.9,289.9,282.6,1.9,1.9,NaN, NaN,18.7,271.7,350.6,1114992209,1114992208,1,0.0,000208,000208,183.4,32.707335,-117.236700,-0.04,NaN,NaN,21.455, NaN,NaN,NaN, NaN, NaN
20050502,000358,1501271,32.707188,-117.236747,0.0,21.450,3.020,5.194,1954.85,0.0,5.144,17.615,17.577, NaN,0.187,   NaN,17.58,1015.99,75.47,17.77,78.5,86.0,2.4,2.3,261.5,269.0,2.4,2.3,NaN, NaN,18.5,271.7,350.6,1114992239,1114992239,1,0.0,000238,000239,183.0,32.707318,-117.236700,0.02,NaN,NaN,21.455, NaN,NaN,NaN, NaN, NaN
20050502,000429,1501302,32.707190,-117.236747,0.0,21.450,3.020,5.195,1949.60,0.0,5.389,17.615,17.577, NaN,0.187,   NaN,17.59,1015.94,75.77,17.76,104.7,111.7,2.4,2.8,287.8,294.8,2.4,2.8,NaN, NaN,18.8,271.7,350.6,1114992269,1114992269,1,0.0,000268,000269,183.2,32.707308,-117.236705,-0.07,NaN,NaN,21.455, NaN,NaN,NaN, NaN, NaN
20050502,000459,1501332,32.707191,-117.236743,0.0,21.451,3.020,5.195,1935.78,0.0,5.389,17.618,17.579, NaN,0.187,   NaN,17.62,1015.95,75.61,17.78,141.5,140.2,2.4,3.1,324.5,323.2,2.4,3.1,NaN, NaN,18.8,271.7,350.6,1114992299,1114992298,1,0.0,000298,000298,182.9,32.707305,-117.236708,-0.02,NaN,NaN,21.456, NaN,NaN,NaN, NaN, NaN
20050502,000528,1501361,32.707181,-117.236742,0.0,21.451,3.020,5.195,1951.67,0.0,5.012,17.618,17.578, NaN,0.187,   NaN,17.62,1015.98,75.69,17.79,146.9,146.1,2.7,3.3,330.0,329.2,2.7,3.3,NaN, NaN,18.7,271.7,350.6,1114992329,1114992329,1,0.0,000328,000329,182.5,32.707300,-117.236712,0.01,NaN,NaN,21.456, NaN,NaN,NaN, NaN, NaN
20050502,000559,1501392,32.707188,-117.236740,0.0,21.451,3.020,5.195,1952.24,0.0,4.993,17.617,17.578, NaN,0.187,   NaN,17.58,1015.97,75.15,17.81,130.0,132.1,3.2,3.6,313.0,315.1,3.2,3.6,NaN, NaN,19.0,271.7,350.6,1114992359,1114992359,1,0.0,000358,000359,183.4,32.707291,-117.236712,0.10,NaN,NaN,21.456, NaN,NaN,NaN, NaN, NaN
20050502,000628,1501421,32.707181,-117.236743,0.0,21.451,3.020,5.195,1949.27,0.0,5.106,17.617,17.578, NaN,0.187,   NaN,17.39,1015.96,75.20,17.68,116.6,127.7,2.7,3.2,299.5,310.6,2.7,3.2,NaN, NaN,18.7,271.7,350.6,1114992389,1114992388,1,0.0,000388,000388,182.9,32.707283,-117.236705,-0.05,NaN,NaN,21.456, NaN,NaN,NaN, NaN, NaN
20050502,000659,1501452,32.707188,-117.236740,0.0,21.451,3.020,5.195,1945.08,0.0,5.389,17.620,17.582, NaN,0.187,   NaN,17.49,1015.94,75.72,17.69,122.7,125.6,2.1,2.7,305.8,308.7,2.1,2.7,NaN, NaN,18.7,271.7,350.6,1114992419,1114992419,1,0.0,000418,000419,183.4,32.707278,-117.236700,-0.08,NaN,NaN,21.456, NaN,NaN,NaN, NaN, NaN
20050502,000729,1501482,32.707190,-117.236743,0.0,21.452,3.020,5.195,1945.22,0.0,5.295,17.622,17.585, NaN,0.187,   NaN,17.44,1015.95,75.50,17.70,125.2,123.5,2.9,3.5,308.2,306.5,2.9,3.5,NaN, NaN,19.4,271.7,350.6,1114992449,1114992449,1,0.0,000448,000449,183.0,32.707291,-117.236710,-0.11,NaN,NaN,21.457, NaN,NaN,NaN, NaN, NaN
20050502,000758,1501511,32.707201,-117.236745,0.0,21.452,3.020,5.195,1933.70,0.0,5.503,17.624,17.589, NaN,0.187,   NaN,17.39,1015.97,75.56,17.71,135.5,136.9,2.9,3.1,318.6,320.0,2.9,3.1,NaN, NaN,19.9,271.7,350.6,1114992479,1114992478,1,0.0,000478,000478,183.1,32.707286,-117.236723,-0.15,NaN,NaN,21.457, NaN,NaN,NaN, NaN, NaN
20050502,000828,1501541,32.707188,-117.236745,0.0,21.451,3.020,5.195,1932.29,0.0,4.955,17.630,17.593, NaN,0.187,   NaN,17.37,1015.94,75.79,17.68,149.5,143.7,2.1,2.4,332.6,326.8,2.1,2.4,NaN, NaN,19.2,271.7,350.6,1114992509,1114992509,1,0.0,000508,000509,183.4,32.707290,-117.236728,0.04,NaN,NaN,21.456, NaN,NaN,NaN, NaN, NaN
20050502,000858,1501571,32.707188,-117.236740,0.0,21.452,3.021,5.196,1935.28,0.0,4.804,17.632,17.596, NaN,0.187,   NaN,17.40,1015.98,75.94,17.69,131.6,125.3,1.3,1.7,314.7,308.4,1.3,1.7,NaN, NaN,18.4,271.7,350.6,1114992539,1114992538,1,0.0,000538,000538,183.0,32.707280,-117.236717,0.00,NaN,NaN,21.457, NaN,NaN,NaN, NaN, NaN
20050502,000928,1501601,32.707183,-117.236743,0.0,21.452,3.021,5.196,1929.98,0.0,5.163,17.636,17.600, NaN,0.187,   NaN,17.50,1015.95,76.06,17.76,107.7,112.2,1.2,1.5,290.8,295.3,1.2,1.5,NaN, NaN,18.4,271.7,350.6,1114992569,1114992568,1,0.0,000568,000568,183.0,32.707300,-117.236718,-0.05,NaN,NaN,21.457, NaN,NaN,NaN, NaN, NaN
20050502,000959,1501632,32.707186,-117.236737,0.0,21.453,3.021,5.196,1924.88,0.0,5.257,17.644,17.607, NaN,0.187,   NaN,17.52,1015.99,75.73,17.78,94.7,100.7,1.7,1.8,277.8,283.8,1.7,1.8,NaN, NaN,17.4,271.7,350.6,1114992599,1114992599,1,0.0,000598,000599,183.2,32.707286,-117.236707,0.06,NaN,NaN,21.458, NaN,NaN,NaN, NaN, NaN
20050502,001029,1501662,32.707183,-117.236740,0.0,21.453,3.021,5.196,1910.94,0.0,5.069,17.648,17.612, NaN,0.187,   NaN,17.44,1015.93,75.52,17.73,95.4,98.9,2.8,3.3,278.6,282.0,2.8,3.3,NaN, NaN,17.4,271.7,350.6,1114992630,1114992629,1,0.0,000629,000629,183.2,32.707278,-117.236705,0.07,NaN,NaN,21.458, NaN,NaN,NaN, NaN, NaN
20050502,001059,1501692,32.707195,-117.236742,0.0,21.453,3.021,5.196,1900.00,0.0,5.371,17.653,17.616, NaN,0.187,   NaN,17.31,1015.90,75.67,17.66,100.9,112.6,3.4,4.4,284.1,295.7,3.4,4.4,NaN, NaN,18.4,271.7,350.6,1114992660,1114992659,1,0.0,000659,000659,183.4,32.707283,-117.236712,-0.07,NaN,NaN,21.458, NaN,NaN,NaN, NaN, NaN
20050502,001129,1501722,32.707198,-117.236745,0.0,21.453,3.021,5.196,1907.31,0.0,4.918,17.657,17.619, NaN,0.187,   NaN,17.24,1015.92,75.91,17.62,102.3,111.1,3.3,4.1,285.3,294.1,3.3,4.1,NaN, NaN,18.7,271.7,350.6,1114992690,1114992689,1,0.0,000689,000689,183.2,32.707300,-117.236710,-0.03,NaN,NaN,21.458, NaN,NaN,NaN, NaN, NaN
20050502,001159,1501752,32.707191,-117.236747,0.0,21.453,3.021,5.196,1916.81,0.0,5.465,17.663,17.624, NaN,0.187,   NaN,17.17,1015.88,75.96,17.61,111.9,114.9,3.1,3.7,295.0,297.9,3.1,3.7,NaN, NaN,18.7,271.7,350.6,1114992719,1114992719,1,0.0,000718,000719,182.9,32.707300,-117.236712,-0.08,NaN,NaN,21.458, NaN,NaN,NaN, NaN, NaN
20050502,001228,1501781,32.707188,-117.236743,0.0,21.454,3.021,5.196,1912.62,0.0,5.106,17.665,17.625, NaN,0.187,   NaN,17.18,1015.93,76.33,17.60,123.8,128.3,2.4,2.7,306.9,311.5,2.4,2.7,NaN, NaN,18.0,271.7,350.6,1114992749,1114992749,1,0.0,000748,000749,183.5,32.707306,-117.236715,0.11,NaN,NaN,21.459, NaN,NaN,NaN, NaN, NaN
20050502,001258,1501811,32.707211,-117.236755,0.0,21.453,3.021,5.196,1892.65,0.0,5.257,17.666,17.626, NaN,0.187,   NaN,17.30,1015.92,76.61,17.62,122.3,134.0,2.0,2.3,305.5,317.2,2.0,2.3,NaN, NaN,19.7,271.7,350.6,1114992779,1114992778,1,0.0,000778,000778,183.0,32.707316,-117.236707,0.05,NaN,NaN,21.458, NaN,NaN,NaN, NaN, NaN
20050502,001329,1501842,32.707208,-117.236753,0.0,21.455,3.021,5.196,1866.82,0.0,5.389,17.664,17.625, NaN,0.186,   NaN,17.40,1015.90,76.37,17.68,89.4,104.5,2.0,2.4,272.6,287.7,2.0,2.4,NaN, NaN,19.2,271.7,350.6,1114992810,1114992809,1,0.0,000809,000809,183.2,32.707321,-117.236713,0.08,NaN,NaN,21.460, NaN,NaN,NaN, NaN, NaN
20050502,001358,1501871,32.707206,-117.236750,0.0,21.455,3.021,5.196,1849.14,0.0,5.314,17.661,17.623, NaN,0.186,   NaN,17.42,1015.90,76.06,17.68,79.1,86.0,1.7,1.9,262.2,269.2,1.7,1.9,NaN, NaN,19.6,271.7,350.6,1114992839,1114992838,1,0.0,000838,000838,183.2,32.707330,-117.236703,-0.03,NaN,NaN,21.460, NaN,NaN,NaN, NaN, NaN
20050502,001429,1501902,32.707200,-117.236742,0.0,21.455,3.021,5.196,1840.44,0.0,5.276,17.655,17.618, NaN,0.186,   NaN,17.43,1015.89,75.95,17.64,126.8,110.8,1.4,1.9,316.9,294.0,1.4,1.9,NaN, NaN,18.9,271.7,350.6,1114992869,1114992869,1,0.0,000868,000869,183.4,32.707318,-117.236698,-0.02,NaN,NaN,21.460, NaN,NaN,NaN, NaN, NaN
20050502,001459,1501932,32.707195,-117.236745,0.0,21.456,3.021,5.197,1833.59,0.0,4.955,17.651,17.614, NaN,0.187,   NaN,17.51,1015.91,75.83,17.70,125.0,117.6,1.7,2.2,314.6,300.6,1.7,2.2,NaN, NaN,18.6,271.7,350.6,1114992900,1114992899,1,0.0,000899,000899,183.4,32.707316,-117.236708,-0.04,NaN,NaN,21.461, NaN,NaN,NaN, NaN, NaN
20050502,001529,1501962,32.707188,-117.236742,0.0,21.456,3.021,5.197,1812.47,0.0,5.106,17.648,17.611, NaN,0.187,   NaN,17.43,1015.89,75.54,17.65,101.3,113.4,2.1,2.7,284.3,296.4,2.1,2.7,NaN, NaN,18.6,271.7,350.6,1114992930,1114992930,1,0.0,000929,000930,182.9,32.707303,-117.236703,-0.07,NaN,NaN,21.461, NaN,NaN,NaN, NaN, NaN
20050502,001559,1501992,32.707196,-117.236745,0.0,21.457,3.021,5.197,1785.30,0.0,5.295,17.646,17.609, NaN,0.186,   NaN,17.47,1015.94,75.77,17.68,88.9,129.7,1.5,2.3,295.2,313.0,1.5,2.3,NaN, NaN,19.2,271.7,350.6,1114992959,1114992959,1,0.0,000959,000959,183.2,32.707308,-117.236705,0.05,NaN,NaN,21.462, NaN,NaN,NaN, NaN, NaN
20050502,001628,1502021,32.707205,-117.236740,0.0,21.457,3.021,5.197,1813.35,0.0,5.012,17.640,17.602, NaN,0.186,   NaN,17.53,1015.94,75.60,17.71,67.4,103.8,0.9,1.3,270.4,286.8,0.9,1.3,NaN, NaN,19.2,271.7,350.6,1114992989,1114992989,1,0.0,000988,000989,183.2,32.707320,-117.236692,0.01,NaN,NaN,21.462, NaN,NaN,NaN, NaN, NaN
20050502,001659,1502053,32.707206,-117.236742,0.0,21.457,3.021,5.197,1813.64,0.0,5.333,17.635,17.596, NaN,0.186,   NaN,17.61,1015.94,75.61,17.76,92.7,87.4,1.0,1.3,282.4,270.5,1.0,1.3,NaN, NaN,19.8,271.7,350.6,1114993019,1114993018,1,0.0,001018,001018,182.7,32.707313,-117.236693,-0.02,NaN,NaN,21.462, NaN,NaN,NaN, NaN, NaN
20050502,001728,1502081,32.707196,-117.236742,0.0,21.457,3.021,5.197,1801.57,0.0,5.144,17.633,17.595, NaN,0.186,   NaN,17.67,1015.94,75.35,17.78,124.8,97.2,1.0,1.6,328.8,280.4,1.0,1.6,NaN, NaN,19.9,271.7,350.6,1114993049,1114993049,1,0.0,001048,001049,183.1,32.707310,-117.236695,0.00,NaN,NaN,21.462, NaN,NaN,NaN, NaN, NaN
20050502,001759,1502112,32.707196,-117.236745,0.0,21.457,3.021,5.197,1785.44,0.0,5.276,17.633,17.594, NaN,0.186,   NaN,17.66,1015.94,75.28,17.81,122.2,109.7,1.6,2.0,314.7,292.8,1.6,2.0,NaN, NaN,20.6,271.7,350.6,1114993080,1114993079,1,0.0,001079,001079,182.7,32.707311,-117.236700,-0.07,NaN,NaN,21.462, NaN,NaN,NaN, NaN, NaN
20050502,001829,1502142,32.707185,-117.236743,0.0,21.458,3.021,5.197,1753.44,0.0,5.201,17.631,17.594, NaN,0.186,   NaN,17.60,1015.94,75.14,17.79,119.3,120.0,2.4,2.5,302.5,303.2,2.4,2.5,NaN, NaN,20.4,271.7,350.6,1114993110,1114993109,1,0.0,001109,001109,182.7,32.707305,-117.236705,0.00,NaN,NaN,21.463, NaN,NaN,NaN, NaN, NaN
20050502,001859,1502172,32.707193,-117.236747,0.0,21.459,3.021,5.197,1757.95,0.0,5.163,17.631,17.593, NaN,0.186,   NaN,17.52,1015.93,75.16,17.77,127.1,124.0,2.4,3.0,310.3,307.1,2.4,3.0,NaN, NaN,20.4,271.7,350.6,1114993140,1114993140,1,0.0,001139,001140,183.4,32.707320,-117.236698,0.05,NaN,NaN,21.464, NaN,NaN,NaN, NaN, NaN
20050502,001929,1502202,32.707190,-117.236748,0.0,21.458,3.022,5.198,1754.50,0.0,4.899,17.631,17.594, NaN,0.187,   NaN,17.45,1015.93,75.50,17.75,125.9,121.5,2.3,2.9,309.0,304.6,2.3,2.9,NaN, NaN,19.5,271.7,350.6,1114993169,1114993169,1,0.0,001168,001169,183.0,32.707328,-117.236690,-0.13,NaN,NaN,21.463, NaN,NaN,NaN, NaN, NaN
20050502,001959,1502232,32.707195,-117.236753,0.0,21.459,3.022,5.198,1768.83,0.0,5.106,17.632,17.594, NaN,0.186,   NaN,17.48,1015.96,75.66,17.77,102.5,113.0,2.1,2.4,285.6,296.1,2.1,2.4,NaN, NaN,19.9,271.7,350.6,1114993200,1114993199,1,0.0,001199,001199,183.2,32.707336,-117.236680,-0.01,NaN,NaN,21.464, NaN,NaN,NaN, NaN, NaN
20050502,002029,1502262,32.707190,-117.236752,0.0,21.459,3.022,5.198,1781.17,0.0,5.182,17.633,17.595, NaN,0.186,   NaN,17.45,1015.93,75.60,17.77,100.0,123.0,2.0,2.5,283.1,306.1,2.0,2.5,NaN, NaN,19.5,271.7,350.6,1114993230,1114993229,1,0.0,001229,001229,182.9,32.707326,-117.236695,0.01,NaN,NaN,21.464, NaN,NaN,NaN, NaN, NaN
20050502,002100,1502293,32.707186,-117.236752,0.0,21.459,3.022,5.198,1796.27,0.0,5.238,17.631,17.594, NaN,0.186,   NaN,17.42,1015.94,75.59,17.72,117.8,126.3,2.1,2.7,300.9,309.4,2.1,2.7,NaN, NaN,19.6,271.7,350.6,1114993260,1114993260,1,0.0,001259,001260,182.7,32.707323,-117.236693,-0.07,NaN,NaN,21.464, NaN,NaN,NaN, NaN, NaN
20050502,002129,1502322,32.707181,-117.236748,0.0,21.460,3.022,5.198,1786.36,0.0,5.125,17.631,17.593, NaN,0.186,   NaN,17.32,1015.96,75.51,17.68,122.2,119.2,2.6,3.1,305.2,302.3,2.6,3.1,NaN, NaN,19.6,271.7,350.6,1114993290,1114993289,1,0.0,001289,001289,183.5,32.707315,-117.236703,-0.05,NaN,NaN,21.465, NaN,NaN,NaN, NaN, NaN
20050502,002201,1502354,32.707193,-117.236752,0.0,21.461,3.022,5.198,1785.19,0.0,5.314,17.632,17.594, NaN,0.186,   NaN,17.32,1015.93,76.04,17.66,114.5,114.4,2.0,2.6,297.6,297.5,2.0,2.6,NaN, NaN,20.1,271.7,350.6,1114993321,1114993321,1,0.0,001320,001321,183.5,32.707316,-117.236707,0.04,NaN,NaN,21.466, NaN,NaN,NaN, NaN, NaN
20050502,002230,1502383,32.707188,-117.236747,0.0,21.461,3.022,5.198,1795.54,0.0,5.144,17.629,17.593, NaN,0.186,   NaN,17.43,1015.94,76.27,17.72,96.9,105.7,1.0,1.5,280.1,288.9,1.0,1.5,NaN, NaN,20.1,271.7,350.6,1114993351,1114993351,1,0.0,001350,001351,183.2,32.707310,-117.236708,-0.03,NaN,NaN,21.466, NaN,NaN,NaN, NaN, NaN
20050502,002300,1502413,32.707188,-117.236750,0.0,21.461,3.021,5.198,1784.80,0.0,5.144,17.628,17.590, NaN,0.186,   NaN,17.57,1015.94,76.29,17.81,95.5,105.5,0.8,1.2,289.8,288.7,0.8,1.2,NaN, NaN,20.5,271.7,350.6,1114993381,1114993381,1,0.0,001380,001381,183.0,32.707325,-117.236693,-0.11,NaN,NaN,21.466, NaN,NaN,NaN, NaN, NaN
20050502,002330,1502443,32.707178,-117.236742,0.0,21.461,3.022,5.200,1769.66,0.0,5.031,17.625,17.589, NaN,0.186,   NaN,17.76,1015.92,76.30,17.92,100.4,107.4,0.8,1.2,304.8,290.5,0.8,1.2,NaN, NaN,20.1,271.7,350.6,1114993411,1114993410,1,0.0,001410,001410,183.2,32.707286,-117.236697,-0.06,NaN,NaN,21.466, NaN,NaN,NaN, NaN, NaN
20050502,002401,1502474,32.707191,-117.236747,0.0,21.462,3.022,5.200,1821.80,0.0,5.182,17.624,17.588, NaN,0.186,   NaN,17.78,1015.92,75.71,17.96,120.2,128.5,1.4,1.5,319.8,311.6,1.4,1.5,NaN, NaN,19.7,271.7,350.6,1114993441,1114993441,1,0.0,001440,001441,183.5,32.707315,-117.236698,-0.05,NaN,NaN,21.467, NaN,NaN,NaN, NaN, NaN
20050502,002430,1502503,32.707196,-117.236743,0.0,21.462,3.022,5.200,1792.01,0.0,4.918,17.624,17.588, NaN,0.186,   NaN,17.89,1015.92,75.69,17.97,130.8,131.2,1.7,1.4,314.0,314.4,1.7,1.4,NaN, NaN,20.0,271.7,350.6,1114993471,1114993471,1,0.0,001470,001471,183.0,32.707315,-117.236698,0.09,NaN,NaN,21.467, NaN,NaN,NaN, NaN, NaN
20050502,002500,1502533,32.707190,-117.236747,0.0,21.462,3.022,5.200,1681.56,0.0,5.031,17.623,17.587, NaN,0.186,   NaN,17.92,1015.93,75.07,17.96,100.3,96.9,1.5,1.3,283.5,280.1,1.5,1.3,NaN, NaN,20.5,271.7,350.6,1114993501,1114993501,1,0.0,001500,001501,183.0,32.707310,-117.236715,-0.03,NaN,NaN,21.467, NaN,NaN,NaN, NaN, NaN
20050502,002530,1502563,32.707183,-117.236743,0.0,21.463,3.022,5.200,1591.58,0.0,5.106,17.622,17.585, NaN,0.186,   NaN,17.88,1015.89,74.86,17.95,95.4,98.1,1.3,1.8,286.0,281.2,1.3,1.8,NaN, NaN,20.3,271.7,350.6,1114993531,1114993530,1,0.0,001530,001530,183.5,32.707295,-117.236703,0.02,NaN,NaN,21.468, NaN,NaN,NaN, NaN, NaN
20050502,002601,1502594,32.707188,-117.236745,0.0,21.463,3.022,5.200,1499.29,0.0,4.861,17.620,17.584, NaN,0.186,   NaN,17.83,1015.94,74.57,17.92,105.3,106.9,1.9,2.5,295.9,290.1,1.9,2.5,NaN, NaN,20.0,271.7,350.6,1114993561,1114993561,1,0.0,001560,001561,183.4,32.707288,-117.236708,0.00,NaN,NaN,21.468, NaN,NaN,NaN, NaN, NaN
20050502,002630,1502623,32.707183,-117.236748,0.0,21.463,3.022,5.200,1401.85,0.0,4.955,17.618,17.579, NaN,0.186,   NaN,17.61,1015.93,73.83,17.79,82.5,89.9,2.3,1.9,265.7,273.1,2.3,1.9,NaN, NaN,20.0,271.7,350.6,1114993591,1114993590,1,0.0,001590,001590,182.7,32.707290,-117.236702,0.01,NaN,NaN,21.468, NaN,NaN,NaN, NaN, NaN
20050502,002700,1502653,32.707185,-117.236752,0.0,21.464,3.022,5.200,1256.33,0.0,4.880,17.617,17.577, NaN,0.185,   NaN,17.47,1015.91,74.16,17.65,86.5,93.5,2.5,2.0,269.7,276.7,2.5,2.0,NaN, NaN,20.0,271.7,350.6,1114993621,1114993621,1,0.0,001620,001621,183.4,32.707298,-117.236707,0.04,NaN,NaN,21.469, NaN,NaN,NaN, NaN, NaN
20050502,002730,1502683,32.707185,-117.236752,0.0,21.463,3.022,5.200,1452.46,0.0,5.106,17.614,17.576, NaN,0.186,   NaN,17.34,1015.93,74.14,17.59,107.8,108.0,2.1,2.3,290.9,291.2,2.1,2.3,NaN, NaN,19.5,271.7,350.6,1114993651,1114993651,1,0.0,001650,001651,183.0,32.707306,-117.236712,-0.01,NaN,NaN,21.468, NaN,NaN,NaN, NaN, NaN
20050502,002800,1502713,32.707193,-117.236752,0.0,21.464,3.022,5.200,1548.99,0.0,5.012,17.614,17.577, NaN,0.185,   NaN,17.40,1015.94,74.57,17.61,89.6,109.3,0.8,1.2,303.3,292.5,0.8,1.2,NaN, NaN,19.7,271.7,350.6,1114993681,1114993681,1,0.0,001680,001681,183.4,32.707310,-117.236710,0.03,NaN,NaN,21.469, NaN,NaN,NaN, NaN, NaN
20050502,002830,1502743,32.707176,-117.236755,0.0,21.465,3.022,5.200,1710.34,0.0,5.106,17.614,17.577, NaN,0.185,   NaN,17.53,1015.94,74.61,17.69,92.0,86.4,0.9,0.8,307.8,269.5,0.9,0.8,NaN, NaN,21.8,271.7,350.6,1114993711,1114993710,1,0.0,001710,001710,183.0,32.707318,-117.236712,-0.06,NaN,NaN,21.470, NaN,NaN,NaN, NaN, NaN
20050502,002900,1502773,32.707166,-117.236755,0.0,21.465,3.023,5.201,1763.18,0.0,4.955,17.614,17.576, NaN,0.186,   NaN,17.63,1015.93,74.45,17.77,99.7,96.8,1.2,1.1,282.9,279.8,1.2,1.1,NaN, NaN,22.3,271.7,350.6,1114993741,1114993740,1,0.0,001740,001740,182.9,32.707326,-117.236708,0.00,NaN,NaN,21.470, NaN,NaN,NaN, NaN, NaN
20050502,002930,1502803,32.707173,-117.236755,0.0,21.465,3.023,5.201,1714.43,0.0,4.936,17.617,17.578, NaN,0.186,   NaN,17.75,1015.92,74.60,17.84,33.1,180.9,0.9,1.3,213.5,4.0,0.9,1.3,NaN, NaN,22.2,271.7,350.6,1114993771,1114993771,1,0.0,001770,001771,183.4,32.707333,-117.236712,-0.01,NaN,NaN,21.470, NaN,NaN,NaN, NaN, NaN
20050502,003000,1502833,32.707178,-117.236755,0.0,21.465,3.023,5.201,1704.83,0.0,4.842,17.621,17.584, NaN,0.186,   NaN,17.87,1015.92,74.62,17.93,70.0,150.9,1.0,1.5,270.5,334.0,1.0,1.5,NaN, NaN,22.4,271.7,350.6,1114993801,1114993801,1,0.1,001800,001801,183.1,32.707325,-117.236708,-0.08,NaN,NaN,21.470, NaN,NaN,NaN, NaN, NaN
20050502,003030,1502863,32.707178,-117.236753,0.0,21.465,3.022,5.201,1697.06,0.0,5.050,17.624,17.587, NaN,0.186,   NaN,18.01,1015.94,74.59,18.02,110.5,121.6,1.3,1.5,303.3,304.8,1.3,1.5,NaN, NaN,22.2,271.7,350.6,1114993831,1114993831,1,0.0,001830,001831,183.0,32.707323,-117.236717,0.05,NaN,NaN,21.470, NaN,NaN,NaN, NaN, NaN
20050502,003100,1502893,32.707180,-117.236753,0.0,21.465,3.023,5.201,1683.96,0.0,5.144,17.625,17.588, NaN,0.186,   NaN,18.05,1015.90,74.15,18.06,105.6,98.7,1.2,1.4,288.8,281.9,1.2,1.4,NaN, NaN,21.8,271.7,350.6,1114993861,1114993861,1,0.0,001860,001861,183.4,32.707311,-117.236718,0.00,NaN,NaN,21.470, NaN,NaN,NaN, NaN, NaN
20050502,003130,1502923,32.707175,-117.236755,0.0,21.465,3.023,5.202,1663.27,0.0,5.182,17.629,17.593, NaN,0.186,   NaN,18.02,1015.91,73.96,18.03,92.9,103.2,0.6,1.2,317.0,286.1,0.6,1.2,NaN, NaN,22.3,271.7,350.6,1114993891,1114993891,1,0.0,001890,001891,183.2,32.707333,-117.236715,0.06,NaN,NaN,21.470, NaN,NaN,NaN, NaN, NaN
20050502,003200,1502953,32.707175,-117.236753,0.0,21.465,3.023,5.201,1660.51,0.0,5.484,17.632,17.595, NaN,0.186,   NaN,17.98,1015.91,73.83,18.00,50.7,107.5,0.8,1.0,269.9,290.7,0.8,1.0,NaN, NaN,22.9,271.7,350.6,1114993921,1114993921,1,0.0,001920,001921,183.2,32.707335,-117.236717,-0.10,NaN,NaN,21.470, NaN,NaN,NaN, NaN, NaN
20050502,003230,1502983,32.707170,-117.236752,0.0,21.465,3.023,5.201,1670.38,0.0,5.163,17.639,17.602, NaN,0.186,   NaN,17.92,1015.94,73.71,17.98,64.6,72.3,1.1,1.0,248.0,255.5,1.1,1.0,NaN, NaN,23.3,271.7,350.6,1114993951,1114993951,1,0.0,001950,001951,183.4,32.707326,-117.236683,0.01,NaN,NaN,21.470, NaN,NaN,NaN, NaN, NaN
20050502,003301,1503014,32.707171,-117.236747,0.0,21.465,3.023,5.202,1679.68,0.0,4.936,17.646,17.609, NaN,0.186,   NaN,17.89,1015.94,73.79,17.96,79.2,92.1,1.4,1.6,263.8,275.3,1.4,1.6,NaN, NaN,23.7,271.7,350.6,1114993981,1114993981,1,0.0,001980,001981,183.4,32.707278,-117.236730,-0.03,NaN,NaN,21.470, NaN,NaN,NaN, NaN, NaN
20050502,003330,1503043,32.707176,-117.236748,0.0,21.465,3.023,5.202,1696.41,0.0,5.144,17.647,17.610, NaN,0.186,   NaN,17.85,1015.95,73.81,17.96,92.3,101.2,1.8,1.9,275.5,284.4,1.8,1.9,NaN, NaN,22.9,271.7,350.6,1114994011,1114994011,1,0.0,002010,002011,183.4,32.707288,-117.236717,-0.04,NaN,NaN,21.470, NaN,NaN,NaN, NaN, NaN
20050502,003400,1503073,32.707180,-117.236747,0.0,21.466,3.023,5.202,1688.55,0.0,5.012,17.648,17.611, NaN,0.186,   NaN,17.85,1015.99,73.97,17.97,113.2,122.4,1.3,1.5,301.5,305.6,1.3,1.5,NaN, NaN,21.9,271.7,350.6,1114994041,1114994041,1,0.0,002040,002041,182.7,32.707293,-117.236712,0.02,NaN,NaN,21.471, NaN,NaN,NaN, NaN, NaN
20050502,003430,1503103,32.707180,-117.236750,0.0,21.465,3.023,5.202,1693.53,0.0,5.427,17.648,17.611, NaN,0.186,   NaN,17.91,1015.99,73.91,18.04,122.5,127.8,1.3,1.3,311.4,311.1,1.3,1.3,NaN, NaN,21.3,271.7,350.6,1114994071,1114994070,1,0.0,002070,002070,182.4,32.707305,-117.236702,0.00,NaN,NaN,21.470, NaN,NaN,NaN, NaN, NaN
20050502,003500,1503133,32.707175,-117.236743,0.0,21.466,3.023,5.202,1672.34,0.0,4.993,17.649,17.613, NaN,0.186,   NaN,17.84,1016.00,73.76,18.00,120.6,119.6,1.6,1.7,303.7,302.8,1.6,1.7,NaN, NaN,20.6,271.7,350.6,1114994101,1114994101,1,0.0,002100,002101,183.1,32.707301,-117.236707,-0.01,NaN,NaN,21.471, NaN,NaN,NaN, NaN, NaN
20050502,003530,1503163,32.707180,-117.236750,0.0,21.466,3.023,5.202,1585.34,0.0,4.785,17.655,17.617, NaN,0.186,   NaN,17.82,1016.01,73.81,17.98,107.2,115.7,1.5,2.0,290.4,298.8,1.5,2.0,NaN, NaN,20.9,271.7,350.6,1114994131,1114994131,1,0.0,002130,002131,182.7,32.707306,-117.236718,0.00,NaN,NaN,21.471, NaN,NaN,NaN, NaN, NaN
20050502,003600,1503193,32.707180,-117.236747,0.0,21.467,3.023,5.202,1607.80,0.0,4.880,17.656,17.619, NaN,0.186,   NaN,17.80,1016.03,73.93,17.98,83.1,95.6,1.8,1.8,266.3,278.8,1.8,1.8,NaN, NaN,21.6,271.7,350.6,1114994161,1114994161,1,0.0,002160,002161,183.2,32.707313,-117.236708,0.04,NaN,NaN,21.472, NaN,NaN,NaN, NaN, NaN
20050502,003631,1503225,32.707175,-117.236745,0.0,21.467,3.023,5.202,1575.48,0.0,5.050,17.659,17.622, NaN,0.185,   NaN,17.59,1015.96,73.57,17.90,90.8,96.9,3.0,3.0,274.0,280.1,3.0,3.0,NaN, NaN,22.2,271.7,350.6,1114994191,1114994191,1,0.0,002190,002191,183.5,32.707305,-117.236705,0.01,NaN,NaN,21.472, NaN,NaN,NaN, NaN, NaN